Weather History for K1H2 - November, 2012

Change the Weather History Date:

Monday, November 12, 2012

  Actual Average (KMTO) Record (KMTO)
Temperature  
Mean Temperature 40 °F 45 °F  
Max Temperature 50 °F 54 °F 73 °F (2010)
Min Temperature 28 °F 36 °F 10 °F (1986)
Degree Days  
Heating Degree Days 26 20  
Month to date heating degree days 214  
Since 1 July heating degree days 618  
Cooling Degree Days 0 0  
Month to date cooling degree days 0  
Year to date cooling degree days 1057  
Moisture  
Dew Point 27 °F    
Average Humidity 70    
Maximum Humidity 94    
Minimum Humidity 44    
Precipitation  
Precipitation 0.35 in 0.13 in 1.80 in (1992)
Month to date precipitation 1.38  
Year to date precipitation 33.18  
Sea Level Pressure  
Sea Level Pressure 30.27 in    
Wind  
Wind Speed 13 mph (West)    
Max Wind Speed 20 mph    
Max Gust Speed 28 mph    
Visibility 9 miles    
Events Rain , Snow    
T = Trace of Precipitation, MM = Missing Value Source: NWS Daily Summary

Daily Weather History Graph

Daily Weather History Graph

Search for Another Location

Airport or City:

Trip Planner

Search our weather history database for the weather conditions in past years. The results will help you decide how hot, cold, wet, or windy it might be!

Date:

Astronomy

Nov. 12, 2012 Rise Set
Actual Time 6:34 AM CST 4:41 PM CST
Civil Twilight 6:05 AM CST 5:10 PM CST
Nautical Twilight 5:33 AM CST 5:42 PM CST
Astronomical Twilight 5:02 AM CST 6:13 PM CST
Moon 4:59 AM CST (11/12) 3:46 PM CST (11/12)
Length of Visible Light 11h 04m
Length of Day
10h 07m
Waning Crescent, 2% of the Moon is Illuminated
Nov 12
Waning Crescent
Nov 13
New
Nov 20
First Quarter
Nov 28
Full
Dec 6
Last Quarter

Hourly Weather History & Observations

Time (CST) Temp. Windchill Dew Point Humidity Pressure Visibility Wind Dir Wind Speed Gust Speed Precip Events Conditions
12:15 AM 50.0 °F - 48.2 °F 94% 30.01 in 7.0 mi West 18.4 mph - N/A Rain Heavy Rain
12:35 AM 46.4 °F 39.5 °F 44.6 °F 93% 30.02 in 4.0 mi NW 17.3 mph - N/A Rain Light Rain
12:55 AM 43.2 °F 35.3 °F 41.0 °F 92% 30.04 in 5.0 mi NW 17.3 mph 23.0 mph 0.12 in   Overcast
1:15 AM 42.3 °F 35.5 °F 40.3 °F 93% 30.03 in 3.0 mi WNW 12.7 mph - 0.03 in   Overcast
1:35 AM 42.8 °F 35.8 °F 41.0 °F 93% 30.04 in 7.0 mi WNW 13.8 mph - N/A Rain Rain
1:55 AM 40.1 °F 31.6 °F 38.5 °F 94% 30.07 in 4.0 mi WNW 16.1 mph - 0.11 in Rain Light Rain
2:15 AM 38.8 °F 30.4 °F 37.2 °F 94% 30.06 in 4.0 mi WNW 15.0 mph 19.6 mph 0.04 in   Overcast
2:35 AM 38.3 °F 30.5 °F 36.5 °F 93% 30.11 in 5.0 mi WNW 12.7 mph 18.4 mph 0.08 in Rain Light Rain
2:55 AM 37.9 °F 29.6 °F 36.1 °F 93% 30.11 in 10.0 mi WNW 13.8 mph - 0.09 in Rain Rain
3:15 AM 36.7 °F 28.0 °F 34.7 °F 93% 30.10 in 10.0 mi WNW 13.8 mph 20.7 mph 0.01 in Rain Light Rain
3:35 AM 35.8 °F 25.4 °F 33.3 °F 91% 30.09 in 10.0 mi WNW 18.4 mph 24.2 mph 0.02 in Rain Light Rain
3:55 AM 35.1 °F 25.5 °F 32.7 °F 91% 30.12 in 7.0 mi WNW 15.0 mph 20.7 mph 0.02 in Rain Light Rain
4:15 AM 34.7 °F 25.5 °F 32.4 °F 91% 30.13 in 7.0 mi WNW 13.8 mph - 0.01 in Snow Light Snow
4:35 AM 34.7 °F 24.0 °F 32.0 °F 90% 30.14 in 10.0 mi WNW 18.4 mph 21.9 mph 0.01 in   Overcast
4:55 AM 34.3 °F 25.0 °F 31.8 °F 90% 30.15 in 10.0 mi WNW 13.8 mph - 0.01 in   Overcast
5:15 AM 34.3 °F 24.6 °F 31.8 °F 90% 30.15 in 10.0 mi WNW 15.0 mph 20.7 mph N/A   Overcast
5:35 AM 34.2 °F 24.0 °F 31.8 °F 91% 30.15 in 10.0 mi WNW 16.1 mph 21.9 mph N/A   Overcast
5:55 AM 34.0 °F 25.0 °F 30.2 °F 86% 30.18 in 10.0 mi WNW 12.7 mph - N/A   Overcast
6:15 AM 33.8 °F 23.9 °F 30.0 °F 86% 30.20 in 10.0 mi WNW 15.0 mph - N/A   Overcast
6:35 AM 33.8 °F 22.5 °F 28.4 °F 81% 30.22 in 10.0 mi WNW 19.6 mph - N/A   Overcast
6:55 AM 32.0 °F 23.0 °F 26.4 °F 80% 30.23 in 10.0 mi WNW 11.5 mph 18.4 mph N/A   Scattered Clouds
7:15 AM 32.0 °F 23.0 °F 26.1 °F 79% 30.24 in 10.0 mi WNW 11.5 mph 17.3 mph N/A   Scattered Clouds
7:35 AM 32.0 °F 21.6 °F 26.1 °F 79% 30.25 in 10.0 mi West 15.0 mph 20.7 mph N/A   Scattered Clouds
7:55 AM 32.0 °F 20.5 °F 24.8 °F 75% 30.26 in 10.0 mi WNW 18.4 mph 24.2 mph N/A   Clear
8:15 AM 32.4 °F 20.9 °F 24.6 °F 73% 30.26 in 10.0 mi West 18.4 mph 21.9 mph N/A   Clear
8:35 AM 32.9 °F 23.2 °F 25.2 °F 73% 30.26 in 10.0 mi West 13.8 mph - N/A   Clear
8:55 AM 33.3 °F 23.2 °F 25.0 °F 72% 30.27 in 10.0 mi West 15.0 mph 23.0 mph N/A   Scattered Clouds
9:15 AM 33.8 °F 23.9 °F 24.3 °F 68% 30.28 in 10.0 mi WNW 15.0 mph - N/A   Clear
9:35 AM 34.9 °F 26.2 °F 24.6 °F 66% 30.29 in 10.0 mi WNW 12.7 mph 16.1 mph N/A   Clear
9:55 AM 35.6 °F 27.1 °F 25.3 °F 66% 30.29 in 10.0 mi WNW 12.7 mph - N/A   Clear
10:15 AM 35.8 °F 28.3 °F 22.6 °F 59% 30.30 in 10.0 mi West 10.4 mph - N/A   Clear
10:35 AM 36.9 °F 27.5 °F 23.7 °F 59% 30.31 in 10.0 mi West 16.1 mph 19.6 mph N/A   Clear
10:55 AM 37.4 °F 28.9 °F 23.9 °F 58% 30.31 in 10.0 mi West 13.8 mph 20.7 mph N/A   Clear
11:15 AM 37.8 °F 30.2 °F 22.5 °F 54% 30.30 in 10.0 mi West 11.5 mph 19.6 mph N/A   Clear
11:35 AM 39.2 °F 30.8 °F 23.0 °F 52% 30.30 in 10.0 mi West 15.0 mph 20.7 mph N/A   Clear
11:55 AM 39.4 °F 31.4 °F 23.7 °F 54% 30.29 in 10.0 mi West 13.8 mph 23.0 mph N/A   Clear
12:15 PM 39.7 °F 31.5 °F 23.5 °F 52% 30.29 in 10.0 mi West 15.0 mph 23.0 mph N/A   Clear
12:35 PM 40.8 °F 32.0 °F 22.6 °F 48% 30.29 in 10.0 mi West 18.4 mph 27.6 mph N/A   Clear
12:55 PM 40.6 °F 32.3 °F 21.2 °F 46% 30.29 in 10.0 mi West 16.1 mph 24.2 mph N/A   Clear
1:15 PM 41.7 °F 33.1 °F 22.3 °F 46% 30.28 in 10.0 mi West 18.4 mph 23.0 mph N/A   Clear
1:35 PM 41.9 °F 33.7 °F 22.8 °F 47% 30.28 in 10.0 mi West 17.3 mph 26.5 mph N/A   Clear
1:55 PM 41.9 °F 34.0 °F 22.8 °F 47% 30.29 in 10.0 mi West 16.1 mph 24.2 mph N/A   Clear
2:15 PM 42.1 °F 35.2 °F 21.4 °F 44% 30.28 in 10.0 mi West 12.7 mph 20.7 mph N/A   Clear
2:35 PM 41.9 °F 34.6 °F 22.6 °F 46% 30.29 in 10.0 mi WSW 13.8 mph 19.6 mph N/A   Clear
2:55 PM 41.9 °F 34.6 °F 22.5 °F 46% 30.30 in 10.0 mi West 13.8 mph 19.6 mph N/A   Clear
3:15 PM 41.5 °F 33.5 °F 21.4 °F 45% 30.31 in 10.0 mi WSW 16.1 mph 21.9 mph N/A   Clear
3:35 PM 41.2 °F 34.5 °F 21.7 °F 46% 30.31 in 10.0 mi West 11.5 mph - N/A   Clear
3:55 PM 40.8 °F 35.0 °F 21.0 °F 45% 30.31 in 10.0 mi West 9.2 mph - N/A   Clear
4:15 PM 41.0 °F 34.7 °F 21.2 °F 45% 30.32 in 10.0 mi WSW 10.4 mph - N/A   Clear
4:35 PM 39.2 °F 35.0 °F 23.2 °F 53% 30.32 in 10.0 mi WSW 5.8 mph - N/A   Clear
4:55 PM 37.9 °F 32.7 °F 23.9 °F 57% 30.33 in 10.0 mi WSW 6.9 mph - N/A   Clear
5:15 PM 37.0 °F 32.4 °F 23.9 °F 59% 30.34 in 10.0 mi SW 5.8 mph - N/A   Clear
5:35 PM 36.7 °F 32.9 °F 24.4 °F 61% 30.35 in 10.0 mi SW 4.6 mph - N/A   Clear
5:55 PM 36.5 °F 33.9 °F 24.6 °F 62% 30.35 in 10.0 mi SW 3.5 mph - N/A   Clear
6:15 PM 35.1 °F 32.2 °F 24.3 °F 65% 30.36 in 10.0 mi SSW 3.5 mph - N/A   Clear
6:35 PM 34.7 °F 31.8 °F 23.9 °F 65% 30.37 in 10.0 mi SSW 3.5 mph - N/A   Clear
6:55 PM 35.1 °F 31.0 °F 23.7 °F 63% 30.37 in 10.0 mi SSW 4.6 mph - N/A   Clear
7:15 PM 34.5 °F 30.4 °F 23.7 °F 65% 30.38 in 10.0 mi SSW 4.6 mph - N/A   Clear
7:35 PM 34.9 °F 32.0 °F 23.4 °F 63% 30.38 in 10.0 mi SSW 3.5 mph - N/A   Clear
7:55 PM 34.0 °F 31.0 °F 24.1 °F 67% 30.39 in 10.0 mi SSW 3.5 mph - N/A   Clear
8:15 PM 33.4 °F 28.1 °F 23.9 °F 68% 30.40 in 10.0 mi WSW 5.8 mph - N/A   Clear
8:35 PM 33.8 °F 29.6 °F 23.9 °F 67% 30.41 in 10.0 mi SW 4.6 mph - N/A   Clear
8:55 PM 34.3 °F 30.2 °F 23.7 °F 65% 30.41 in 10.0 mi WSW 4.6 mph - N/A   Clear
9:15 PM 34.2 °F 30.0 °F 23.4 °F 65% 30.41 in 10.0 mi West 4.6 mph - N/A   Clear
9:35 PM 33.6 °F 30.6 °F 23.5 °F 67% 30.41 in 10.0 mi WSW 3.5 mph - N/A   Clear
9:55 PM 32.7 °F - 24.1 °F 71% 30.41 in 10.0 mi Calm Calm - N/A   Clear
10:15 PM 32.7 °F 29.6 °F 23.7 °F 69% 30.41 in 10.0 mi WSW 3.5 mph - N/A   Clear
10:35 PM 31.1 °F - 24.3 °F 76% 30.42 in 10.0 mi Calm Calm - N/A   Clear
10:55 PM 29.3 °F - 25.7 °F 86% 30.42 in 10.0 mi Calm Calm - N/A   Clear
11:15 PM 30.0 °F - 25.2 °F 82% 30.43 in 10.0 mi Calm Calm - N/A   Clear
11:35 PM 29.3 °F - 25.3 °F 85% 30.43 in 10.0 mi Calm Calm - N/A   Clear
11:55 PM 28.8 °F - 25.3 °F 87% 30.43 in 10.0 mi Calm Calm - N/A   Clear